AAL242 MDPP-KMIA

Flight info

Callsign AAL242
Flight time 1h 48m
Altitude 38000
Route MALVN3C MALVN Y261 MADIZ VIICE2
Aircraft B38M/M-SDE1FGHILORVWXY/HB1

Departure

Time 2026-05-08 06:02
Airport Gregorio Luperon International Airport (MDPP)

Arrival

Time 2026-05-08 07:50
Airport Miami International Airport (KMIA)
Time Latitude Longitude Altitude Speed Heading
2026-05-08 05:45 19.75635 -70.56353 43 ft 0 kts 218°
2026-05-08 05:50 19.75638 -70.56351 43 ft 2 kts 217°
2026-05-08 05:50 19.75653 -70.56341 42 ft 3 kts 205°
2026-05-08 05:50 19.75672 -70.56333 39 ft 3 kts 196°
2026-05-08 05:51 19.75691 -70.56327 38 ft 3 kts 206°
2026-05-08 05:51 19.75704 -70.56318 37 ft 2 kts 247°
2026-05-08 05:51 19.75705 -70.56314 37 ft 0 kts 253°
2026-05-08 05:56 19.75705 -70.56315 36 ft 0 kts 253°
2026-05-08 05:56 19.75699 -70.56336 37 ft 7 kts 253°
2026-05-08 05:56 19.75712 -70.56385 35 ft 9 kts 285°
2026-05-08 05:56 19.75693 -70.56464 35 ft 16 kts 252°
2026-05-08 05:57 19.75655 -70.56592 34 ft 20 kts 252°
2026-05-08 05:57 19.75619 -70.56718 34 ft 18 kts 253°
2026-05-08 05:57 19.75581 -70.56851 32 ft 20 kts 253°
2026-05-08 05:57 19.75544 -70.56981 27 ft 15 kts 252°
2026-05-08 05:58 19.75551 -70.57068 25 ft 10 kts 314°
2026-05-08 05:58 19.75610 -70.57133 24 ft 13 kts 314°
2026-05-08 05:58 19.75667 -70.57196 24 ft 10 kts 314°
2026-05-08 05:58 19.75710 -70.57265 24 ft 12 kts 270°
2026-05-08 05:59 19.75680 -70.57375 24 ft 19 kts 253°
2026-05-08 05:59 19.75639 -70.57516 23 ft 21 kts 252°
2026-05-08 05:59 19.75593 -70.57669 25 ft 22 kts 252°
2026-05-08 05:59 19.75552 -70.57817 29 ft 21 kts 253°
2026-05-08 06:00 19.75508 -70.57971 30 ft 24 kts 252°
2026-05-08 06:00 19.75459 -70.58141 32 ft 25 kts 253°
2026-05-08 06:00 19.75399 -70.58316 30 ft 20 kts 231°
2026-05-08 06:00 19.75369 -70.58384 30 ft 1 kts 324°
2026-05-08 06:01 19.75381 -70.58386 30 ft 3 kts 16°
2026-05-08 06:01 19.75403 -70.58331 30 ft 24 kts 73°
2026-05-08 06:01 19.75541 -70.57854 30 ft 111 kts 73°
2026-05-08 06:01 19.75844 -70.56795 71 ft 177 kts 74°
2026-05-08 06:02 19.76226 -70.55469 660 ft 205 kts 73°
2026-05-08 06:02 19.76663 -70.53934 1447 ft 231 kts 73°
2026-05-08 06:02 19.77153 -70.52188 2140 ft 248 kts 72°
2026-05-08 06:02 19.77949 -70.50639 3291 ft 242 kts 47°
2026-05-08 06:03 19.79358 -70.49625 3955 ft 252 kts 18°
2026-05-08 06:03 19.81137 -70.49405 4500 ft 267 kts 352°
2026-05-08 06:03 19.82971 -70.49870 5176 ft 275 kts 349°
2026-05-08 06:03 19.84883 -70.49783 5444 ft 279 kts 16°
2026-05-08 06:04 19.86768 -70.49318 6098 ft 279 kts 359°
2026-05-08 06:04 19.88627 -70.49825 6854 ft 281 kts 328°
2026-05-08 06:04 19.90164 -70.51117 7570 ft 285 kts 312°
2026-05-08 06:04 19.91322 -70.52826 8295 ft 288 kts 301°
2026-05-08 06:05 19.92376 -70.54655 8987 ft 292 kts 301°
2026-05-08 06:05 19.93450 -70.56499 9682 ft 295 kts 301°
2026-05-08 06:05 19.94544 -70.58370 10285 ft 303 kts 301°
2026-05-08 06:05 19.95687 -70.60316 10655 ft 317 kts 301°
2026-05-08 06:06 19.96869 -70.62329 11143 ft 325 kts 301°
2026-05-08 06:06 19.98074 -70.64383 11771 ft 329 kts 301°
2026-05-08 06:06 19.99285 -70.66449 12424 ft 332 kts 301°
2026-05-08 06:06 20.00511 -70.68543 13086 ft 335 kts 301°
2026-05-08 06:07 20.01745 -70.70653 13751 ft 338 kts 301°
2026-05-08 06:07 20.02993 -70.72784 14413 ft 341 kts 301°
2026-05-08 06:07 20.04252 -70.74938 15059 ft 344 kts 301°
2026-05-08 06:07 20.05503 -70.77078 15684 ft 347 kts 301°
2026-05-08 06:08 20.06783 -70.79268 16283 ft 350 kts 301°
2026-05-08 06:08 20.08076 -70.81481 16859 ft 353 kts 301°
2026-05-08 06:08 20.09377 -70.83709 17413 ft 356 kts 301°
2026-05-08 06:08 20.10689 -70.85957 17938 ft 359 kts 301°
2026-05-08 06:09 20.12011 -70.88223 18437 ft 362 kts 301°
2026-05-08 06:09 20.13338 -70.90498 18919 ft 364 kts 301°
2026-05-08 06:09 20.14679 -70.92798 19376 ft 367 kts 301°
2026-05-08 06:09 20.16029 -70.95113 19818 ft 369 kts 301°
2026-05-08 06:10 20.17386 -70.97442 20240 ft 371 kts 301°
2026-05-08 06:10 20.18752 -70.99786 20645 ft 374 kts 301°
2026-05-08 06:10 20.20125 -71.02145 21033 ft 376 kts 301°
2026-05-08 06:10 20.21506 -71.04518 21405 ft 378 kts 301°
2026-05-08 06:11 20.22894 -71.06904 21767 ft 380 kts 301°
2026-05-08 06:11 20.24289 -71.09303 22111 ft 382 kts 301°
2026-05-08 06:11 20.25689 -71.11711 22443 ft 384 kts 301°
2026-05-08 06:11 20.27098 -71.14136 22758 ft 386 kts 301°
2026-05-08 06:12 20.28511 -71.16569 23063 ft 388 kts 301°
2026-05-08 06:12 20.29932 -71.19017 23359 ft 389 kts 301°
2026-05-08 06:12 20.31359 -71.21475 23641 ft 391 kts 301°
2026-05-08 06:12 20.32791 -71.23945 23917 ft 393 kts 301°
2026-05-08 06:13 20.34229 -71.26425 24179 ft 394 kts 301°
2026-05-08 06:13 20.35675 -71.28919 24426 ft 396 kts 301°
2026-05-08 06:13 20.37121 -71.31416 24663 ft 397 kts 301°
2026-05-08 06:13 20.38573 -71.33923 24914 ft 398 kts 301°
2026-05-08 06:14 20.40032 -71.36443 25128 ft 400 kts 301°
2026-05-08 06:14 20.41507 -71.38962 25349 ft 401 kts 303°
2026-05-08 06:14 20.43075 -71.41429 25556 ft 403 kts 303°
2026-05-08 06:14 20.44645 -71.43909 25759 ft 404 kts 303°
2026-05-08 06:15 20.46215 -71.46399 25962 ft 405 kts 303°
2026-05-08 06:15 20.47788 -71.48896 26149 ft 406 kts 303°
2026-05-08 06:15 20.49366 -71.51405 26340 ft 408 kts 303°
2026-05-08 06:15 20.50925 -71.53885 26512 ft 409 kts 303°
2026-05-08 06:16 20.52509 -71.56405 26694 ft 410 kts 303°
2026-05-08 06:16 20.54097 -71.58931 26862 ft 411 kts 303°
2026-05-08 06:16 20.55689 -71.61468 27035 ft 412 kts 303°
2026-05-08 06:16 20.57284 -71.64008 27195 ft 413 kts 303°
2026-05-08 06:17 20.60486 -71.69114 27502 ft 415 kts 303°
2026-05-08 06:17 20.62095 -71.71680 27635 ft 416 kts 303°
2026-05-08 06:17 20.63704 -71.74248 27783 ft 417 kts 303°
2026-05-08 06:18 20.65316 -71.76822 27930 ft 418 kts 303°
2026-05-08 06:18 20.66929 -71.79400 28064 ft 418 kts 303°
2026-05-08 06:18 20.68548 -71.81986 28193 ft 419 kts 303°
2026-05-08 06:18 20.70170 -71.84581 28317 ft 420 kts 303°
2026-05-08 06:19 20.71795 -71.87180 28432 ft 421 kts 303°
2026-05-08 06:19 20.73420 -71.89780 28562 ft 422 kts 303°
2026-05-08 06:19 20.75051 -71.92392 28670 ft 423 kts 303°
2026-05-08 06:19 20.76683 -71.95005 28780 ft 423 kts 303°
2026-05-08 06:20 20.78318 -71.97625 28898 ft 424 kts 303°
2026-05-08 06:20 20.79953 -72.00248 29000 ft 425 kts 303°
2026-05-08 06:20 20.81589 -72.02871 29108 ft 425 kts 303°
2026-05-08 06:20 20.83230 -72.05506 29203 ft 426 kts 303°
2026-05-08 06:21 20.84874 -72.08145 29306 ft 427 kts 303°
2026-05-08 06:21 20.86520 -72.10788 29397 ft 427 kts 303°
2026-05-08 06:21 20.89814 -72.16084 29588 ft 428 kts 303°
2026-05-08 06:22 20.93093 -72.21360 29750 ft 430 kts 303°
2026-05-08 06:22 20.96403 -72.26690 29916 ft 431 kts 303°
2026-05-08 06:23 20.99722 -72.32040 30072 ft 432 kts 303°
2026-05-08 06:23 21.03044 -72.37399 30219 ft 433 kts 303°
2026-05-08 06:24 21.06372 -72.42775 30360 ft 433 kts 303°
2026-05-08 06:24 21.09705 -72.48163 30487 ft 435 kts 303°
2026-05-08 06:25 21.13045 -72.53566 30622 ft 435 kts 303°
2026-05-08 06:25 21.16390 -72.58981 30741 ft 436 kts 303°
2026-05-08 06:26 21.19736 -72.64406 30857 ft 437 kts 303°
2026-05-08 06:26 21.23088 -72.69844 30970 ft 438 kts 303°
2026-05-08 06:27 21.26443 -72.75291 31069 ft 439 kts 303°
2026-05-08 06:27 21.29807 -72.80757 31164 ft 440 kts 303°
2026-05-08 06:28 21.33172 -72.86231 31274 ft 440 kts 303°
2026-05-08 06:28 21.36536 -72.91710 31357 ft 441 kts 303°
2026-05-08 06:29 21.39908 -72.97206 31464 ft 441 kts 303°
2026-05-08 06:29 21.43281 -73.02710 31570 ft 441 kts 303°
2026-05-08 06:30 21.44956 -73.05444 31822 ft 435 kts 303°
2026-05-08 06:30 21.46606 -73.08140 32134 ft 429 kts 303°
2026-05-08 06:30 21.48232 -73.10798 32420 ft 423 kts 303°
2026-05-08 06:30 21.49838 -73.13425 32611 ft 420 kts 303°
2026-05-08 06:31 21.53041 -73.18665 32745 ft 420 kts 303°
2026-05-08 06:31 21.56230 -73.23889 32799 ft 422 kts 303°
2026-05-08 06:32 21.59455 -73.29176 32854 ft 424 kts 303°
2026-05-08 06:32 21.62685 -73.34477 32908 ft 425 kts 303°
2026-05-08 06:33 21.65926 -73.39801 32961 ft 426 kts 303°
2026-05-08 06:33 21.69175 -73.45143 33014 ft 428 kts 303°
2026-05-08 06:34 21.72430 -73.50501 33067 ft 429 kts 303°
2026-05-08 06:34 21.75695 -73.55879 33119 ft 430 kts 303°
2026-05-08 06:35 21.78960 -73.61264 33161 ft 431 kts 303°
2026-05-08 06:35 21.80603 -73.63976 33040 ft 434 kts 303°
2026-05-08 06:35 21.82257 -73.66707 32981 ft 436 kts 303°
2026-05-08 06:36 21.85566 -73.72175 33002 ft 437 kts 303°
2026-05-08 06:36 21.88883 -73.77661 33002 ft 437 kts 302°
2026-05-08 06:37 21.92198 -73.83152 33001 ft 438 kts 302°
2026-05-08 06:37 21.95520 -73.88657 33001 ft 439 kts 302°
2026-05-08 06:38 21.98822 -73.94135 33001 ft 439 kts 302°
2026-05-08 06:38 22.02150 -73.99663 33001 ft 440 kts 302°
2026-05-08 06:39 22.05477 -74.05194 33001 ft 440 kts 302°
2026-05-08 06:39 22.08810 -74.10741 33001 ft 441 kts 302°
2026-05-08 06:40 22.12143 -74.16295 33001 ft 441 kts 302°
2026-05-08 06:40 22.14916 -74.20918 33001 ft 442 kts 302°
2026-05-08 06:41 22.18250 -74.26484 33000 ft 442 kts 302°
2026-05-08 06:41 22.21587 -74.32059 33001 ft 442 kts 302°
2026-05-08 06:42 22.24924 -74.37641 33000 ft 443 kts 302°
2026-05-08 06:42 22.28262 -74.43231 33001 ft 443 kts 302°
2026-05-08 06:43 22.31599 -74.48824 33001 ft 443 kts 302°
2026-05-08 06:43 22.34940 -74.54430 33001 ft 444 kts 302°
2026-05-08 06:44 22.38278 -74.60037 33000 ft 444 kts 302°
2026-05-08 06:44 22.41621 -74.65659 33000 ft 444 kts 302°
2026-05-08 06:45 22.44958 -74.71275 33000 ft 445 kts 302°
2026-05-08 06:45 22.48298 -74.76903 33001 ft 445 kts 302°
2026-05-08 06:46 22.51639 -74.82539 33001 ft 445 kts 302°
2026-05-08 06:46 22.54980 -74.88182 33000 ft 445 kts 302°
2026-05-08 06:47 22.58295 -74.93785 33000 ft 446 kts 302°
2026-05-08 06:47 22.61612 -74.99398 33000 ft 446 kts 302°
2026-05-08 06:48 22.64952 -75.05056 33000 ft 446 kts 302°
2026-05-08 06:48 22.68286 -75.10711 33000 ft 446 kts 302°
2026-05-08 06:49 22.71621 -75.16374 33000 ft 446 kts 302°
2026-05-08 06:49 22.74953 -75.22038 33000 ft 446 kts 302°
2026-05-08 06:50 22.78286 -75.27708 33000 ft 446 kts 302°
2026-05-08 06:50 22.81620 -75.33386 33000 ft 446 kts 302°
2026-05-08 06:51 22.84947 -75.39061 33000 ft 446 kts 302°
2026-05-08 06:51 22.88276 -75.44743 33000 ft 446 kts 302°
2026-05-08 06:52 22.91604 -75.50429 33000 ft 447 kts 302°
2026-05-08 06:52 22.94929 -75.56119 33000 ft 447 kts 302°
2026-05-08 06:53 22.98233 -75.61778 33000 ft 447 kts 302°
2026-05-08 06:53 23.01555 -75.67473 33000 ft 447 kts 302°
2026-05-08 06:54 23.04876 -75.73174 33000 ft 447 kts 302°
2026-05-08 06:54 23.08200 -75.78886 33000 ft 447 kts 302°
2026-05-08 06:55 23.11521 -75.84598 33000 ft 447 kts 302°
2026-05-08 06:55 23.14836 -75.90308 33000 ft 447 kts 302°
2026-05-08 06:56 23.18155 -75.96030 33000 ft 447 kts 302°
2026-05-08 06:56 23.21470 -76.01754 33000 ft 447 kts 302°
2026-05-08 06:57 23.24784 -76.07480 33000 ft 448 kts 302°
2026-05-08 06:57 23.28096 -76.13210 33000 ft 448 kts 302°
2026-05-08 06:58 23.31408 -76.18945 33000 ft 448 kts 302°
2026-05-08 06:58 23.34720 -76.24687 33000 ft 448 kts 302°
2026-05-08 06:59 23.38028 -76.30431 33000 ft 448 kts 302°
2026-05-08 06:59 23.41334 -76.36176 33000 ft 448 kts 302°
2026-05-08 07:00 23.44642 -76.41930 33000 ft 448 kts 302°
2026-05-08 07:00 23.47947 -76.47687 33000 ft 448 kts 302°
2026-05-08 07:01 23.51250 -76.53447 33000 ft 448 kts 301°
2026-05-08 07:01 23.54548 -76.59205 33000 ft 448 kts 301°
2026-05-08 07:02 23.57850 -76.64976 33000 ft 448 kts 301°
2026-05-08 07:02 23.61147 -76.70745 33000 ft 449 kts 301°
2026-05-08 07:03 23.64423 -76.76483 33000 ft 449 kts 301°
2026-05-08 07:03 23.67716 -76.82259 33000 ft 449 kts 301°
2026-05-08 07:04 23.71009 -76.88041 33000 ft 449 kts 301°
2026-05-08 07:04 23.74302 -76.93828 33000 ft 449 kts 301°
2026-05-08 07:05 23.77595 -76.99625 33000 ft 449 kts 301°
2026-05-08 07:05 23.80880 -77.05411 33000 ft 449 kts 301°
2026-05-08 07:06 23.84170 -77.11215 33000 ft 449 kts 301°
2026-05-08 07:06 23.87454 -77.17016 33000 ft 449 kts 301°
2026-05-08 07:07 23.90741 -77.22827 33000 ft 449 kts 301°
2026-05-08 07:07 23.94023 -77.28636 33000 ft 449 kts 301°
2026-05-08 07:08 23.97304 -77.34451 33000 ft 450 kts 301°
2026-05-08 07:08 24.00587 -77.40275 33000 ft 450 kts 301°
2026-05-08 07:09 24.03868 -77.46101 33000 ft 450 kts 301°
2026-05-08 07:09 24.07143 -77.51924 32998 ft 450 kts 301°
2026-05-08 07:10 24.10421 -77.57759 33000 ft 450 kts 301°
2026-05-08 07:10 24.13696 -77.63593 33000 ft 450 kts 301°
2026-05-08 07:11 24.16967 -77.69430 33000 ft 450 kts 301°
2026-05-08 07:11 24.20215 -77.75231 33000 ft 450 kts 301°
2026-05-08 07:12 24.23483 -77.81077 33001 ft 450 kts 301°
2026-05-08 07:12 24.26763 -77.86917 32998 ft 450 kts 303°
2026-05-08 07:13 24.30274 -77.92595 33002 ft 450 kts 303°
2026-05-08 07:13 24.33771 -77.98284 33000 ft 450 kts 303°
2026-05-08 07:14 24.37266 -78.03979 33000 ft 450 kts 303°
2026-05-08 07:14 24.40761 -78.09682 33000 ft 450 kts 303°
2026-05-08 07:15 24.44252 -78.15386 33000 ft 450 kts 303°
2026-05-08 07:15 24.47739 -78.21089 33000 ft 450 kts 303°
2026-05-08 07:16 24.51228 -78.26802 33000 ft 450 kts 303°
2026-05-08 07:16 24.54715 -78.32520 33000 ft 451 kts 303°
2026-05-08 07:17 24.58199 -78.38237 32993 ft 451 kts 303°
2026-05-08 07:17 24.59938 -78.41095 32831 ft 449 kts 303°
2026-05-08 07:17 24.61669 -78.43939 32583 ft 446 kts 303°
2026-05-08 07:18 24.63388 -78.46767 32330 ft 444 kts 303°
2026-05-08 07:18 24.65097 -78.49580 32080 ft 441 kts 303°
2026-05-08 07:18 24.66798 -78.52380 31830 ft 439 kts 303°
2026-05-08 07:18 24.68467 -78.55131 31583 ft 437 kts 303°
2026-05-08 07:19 24.70151 -78.57907 31335 ft 435 kts 303°
2026-05-08 07:19 24.71795 -78.60617 31422 ft 415 kts 303°
2026-05-08 07:19 24.73347 -78.63180 31755 ft 395 kts 303°
2026-05-08 07:19 24.74874 -78.65700 31731 ft 398 kts 303°
2026-05-08 07:20 24.76417 -78.68248 31505 ft 402 kts 303°
2026-05-08 07:20 24.77979 -78.70830 31241 ft 408 kts 303°
2026-05-08 07:20 24.79560 -78.73443 30963 ft 413 kts 303°
2026-05-08 07:20 24.81165 -78.76095 30624 ft 419 kts 303°
2026-05-08 07:21 24.82785 -78.78774 30277 ft 422 kts 303°
2026-05-08 07:21 24.84410 -78.81462 29932 ft 421 kts 303°
2026-05-08 07:21 24.86028 -78.84140 29581 ft 419 kts 303°
2026-05-08 07:21 24.87632 -78.86797 29208 ft 416 kts 303°
2026-05-08 07:22 24.89225 -78.89437 28834 ft 413 kts 303°
2026-05-08 07:22 24.90810 -78.92064 28459 ft 410 kts 303°
2026-05-08 07:22 24.92383 -78.94673 28085 ft 407 kts 303°
2026-05-08 07:22 24.93922 -78.97228 27716 ft 404 kts 303°
2026-05-08 07:23 24.95471 -78.99799 27341 ft 401 kts 303°
2026-05-08 07:23 24.97007 -79.02351 26967 ft 398 kts 303°
2026-05-08 07:23 24.98534 -79.04889 26592 ft 395 kts 303°
2026-05-08 07:23 25.00048 -79.07408 26218 ft 393 kts 303°
2026-05-08 07:24 25.01547 -79.09901 25851 ft 390 kts 303°
2026-05-08 07:24 25.03039 -79.12387 25546 ft 388 kts 303°
2026-05-08 07:24 25.04521 -79.14856 25143 ft 385 kts 303°
2026-05-08 07:24 25.05992 -79.17307 24746 ft 382 kts 303°
2026-05-08 07:25 25.06979 -79.18953 24475 ft 380 kts 303°
2026-05-08 07:25 25.08900 -79.22157 23947 ft 376 kts 303°
2026-05-08 07:25 25.11761 -79.26935 23148 ft 370 kts 303°
2026-05-08 07:26 25.13174 -79.29295 22749 ft 368 kts 303°
2026-05-08 07:26 25.14575 -79.31638 22351 ft 365 kts 303°
2026-05-08 07:26 25.15967 -79.33967 21951 ft 362 kts 303°
2026-05-08 07:26 25.17347 -79.36276 21552 ft 359 kts 303°
2026-05-08 07:27 25.18719 -79.38572 21153 ft 357 kts 303°
2026-05-08 07:27 25.20078 -79.40849 20754 ft 354 kts 303°
2026-05-08 07:27 25.21429 -79.43113 20355 ft 351 kts 303°
2026-05-08 07:27 25.22767 -79.45357 19955 ft 349 kts 303°
2026-05-08 07:28 25.24096 -79.47587 19556 ft 346 kts 303°
2026-05-08 07:28 25.25416 -79.49801 19157 ft 344 kts 303°
2026-05-08 07:28 25.26724 -79.51997 18757 ft 341 kts 303°
2026-05-08 07:28 25.28021 -79.54176 18460 ft 339 kts 303°
2026-05-08 07:29 25.29313 -79.56348 18155 ft 337 kts 303°
2026-05-08 07:29 25.30598 -79.58508 17849 ft 335 kts 303°
2026-05-08 07:29 25.31874 -79.60655 17546 ft 333 kts 303°
2026-05-08 07:29 25.33144 -79.62792 17246 ft 332 kts 303°
2026-05-08 07:30 25.34408 -79.64920 16948 ft 330 kts 303°
2026-05-08 07:30 25.35665 -79.67037 16650 ft 328 kts 303°
2026-05-08 07:30 25.36493 -79.68432 16452 ft 327 kts 303°
2026-05-08 07:30 25.37736 -79.70527 16152 ft 325 kts 303°
2026-05-08 07:31 25.38997 -79.72598 15850 ft 323 kts 305°
2026-05-08 07:31 25.40299 -79.74618 15549 ft 322 kts 305°
2026-05-08 07:31 25.41585 -79.76622 15223 ft 316 kts 305°
2026-05-08 07:31 25.42844 -79.78589 14894 ft 313 kts 304°
2026-05-08 07:32 25.44097 -79.80549 14574 ft 311 kts 304°
2026-05-08 07:32 25.45352 -79.82514 14237 ft 315 kts 304°
2026-05-08 07:32 25.46624 -79.84508 13858 ft 319 kts 304°
2026-05-08 07:32 25.47902 -79.86510 13485 ft 318 kts 305°
2026-05-08 07:33 25.49180 -79.88504 13111 ft 317 kts 305°
2026-05-08 07:33 25.50451 -79.90487 12736 ft 315 kts 305°
2026-05-08 07:33 25.51712 -79.92456 12363 ft 313 kts 304°
2026-05-08 07:33 25.52963 -79.94412 11988 ft 310 kts 304°
2026-05-08 07:34 25.54208 -79.96358 11614 ft 308 kts 304°
2026-05-08 07:34 25.55442 -79.98288 11240 ft 306 kts 304°
2026-05-08 07:34 25.56668 -80.00205 10866 ft 304 kts 304°
2026-05-08 07:34 25.57887 -80.02112 10492 ft 302 kts 304°
2026-05-08 07:35 25.59096 -80.04006 10118 ft 300 kts 304°
2026-05-08 07:35 25.60299 -80.05890 9743 ft 298 kts 304°
2026-05-08 07:35 25.61493 -80.07761 9370 ft 296 kts 304°
2026-05-08 07:35 25.62662 -80.09594 9027 ft 293 kts 304°
2026-05-08 07:36 25.63828 -80.11421 8679 ft 287 kts 304°
2026-05-08 07:36 25.64966 -80.13208 8325 ft 281 kts 304°
2026-05-08 07:36 25.65939 -80.15049 8015 ft 273 kts 294°
2026-05-08 07:36 25.66713 -80.16931 7765 ft 264 kts 294°
2026-05-08 07:37 25.67485 -80.18750 7510 ft 259 kts 295°
2026-05-08 07:37 25.68258 -80.20542 7257 ft 257 kts 295°
2026-05-08 07:37 25.69017 -80.22327 6998 ft 256 kts 294°
2026-05-08 07:37 25.69771 -80.24127 6729 ft 259 kts 294°
2026-05-08 07:38 25.70533 -80.25935 6457 ft 258 kts 294°
2026-05-08 07:38 25.71126 -80.27798 6162 ft 255 kts 275°
2026-05-08 07:38 25.71103 -80.29739 5892 ft 250 kts 267°
2026-05-08 07:38 25.71035 -80.31659 5619 ft 248 kts 267°
2026-05-08 07:39 25.70959 -80.33564 5345 ft 247 kts 267°
2026-05-08 07:39 25.70877 -80.35462 5085 ft 245 kts 266°
2026-05-08 07:39 25.70793 -80.37347 5001 ft 245 kts 266°
2026-05-08 07:39 25.70705 -80.39234 4998 ft 246 kts 266°
2026-05-08 07:40 25.70616 -80.41127 4991 ft 246 kts 266°
2026-05-08 07:40 25.70526 -80.43017 4988 ft 246 kts 266°
2026-05-08 07:40 25.70403 -80.44908 4988 ft 246 kts 264°
2026-05-08 07:40 25.70252 -80.46794 4988 ft 246 kts 264°
2026-05-08 07:41 25.70102 -80.48677 4987 ft 246 kts 264°
2026-05-08 07:41 25.69951 -80.50565 4986 ft 245 kts 264°
2026-05-08 07:41 25.69801 -80.52447 4986 ft 246 kts 264°
2026-05-08 07:41 25.69651 -80.54332 4987 ft 246 kts 264°
2026-05-08 07:42 25.69502 -80.56217 4986 ft 246 kts 264°
2026-05-08 07:42 25.69353 -80.58103 4987 ft 246 kts 264°
2026-05-08 07:42 25.69263 -80.59990 4972 ft 246 kts 276°
2026-05-08 07:42 25.69897 -80.61680 4947 ft 243 kts 310°
2026-05-08 07:43 25.71251 -80.62846 5004 ft 247 kts 334°
2026-05-08 07:43 25.72887 -80.63306 4973 ft 248 kts 359°
2026-05-08 07:43 25.74570 -80.63036 4804 ft 243 kts 11°
2026-05-08 07:43 25.76242 -80.62677 4566 ft 240 kts 15°
2026-05-08 07:44 25.77681 -80.61798 4291 ft 237 kts 44°
2026-05-08 07:44 25.78555 -80.60312 4041 ft 234 kts 72°
2026-05-08 07:44 25.78861 -80.58553 3971 ft 233 kts 86°
2026-05-08 07:44 25.78961 -80.56751 4001 ft 235 kts 88°
2026-05-08 07:45 25.79037 -80.54937 3890 ft 235 kts 88°
2026-05-08 07:45 25.79112 -80.53132 3732 ft 233 kts 88°
2026-05-08 07:45 25.79188 -80.51313 3613 ft 231 kts 88°
2026-05-08 07:45 25.79261 -80.49584 3436 ft 224 kts 88°
2026-05-08 07:46 25.79331 -80.47882 3243 ft 217 kts 88°
2026-05-08 07:46 25.79402 -80.46207 2988 ft 214 kts 88°
2026-05-08 07:46 25.79469 -80.44581 2671 ft 211 kts 88°
2026-05-08 07:46 25.79536 -80.42982 2346 ft 196 kts 88°
2026-05-08 07:47 25.79596 -80.41552 2067 ft 179 kts 88°
2026-05-08 07:47 25.79652 -80.40211 1816 ft 172 kts 88°
2026-05-08 07:47 25.79704 -80.38952 1588 ft 158 kts 88°
2026-05-08 07:47 25.79754 -80.37758 1377 ft 152 kts 88°
2026-05-08 07:48 25.79803 -80.36595 1176 ft 150 kts 88°
2026-05-08 07:48 25.79851 -80.35443 976 ft 149 kts 88°
2026-05-08 07:48 25.79898 -80.34291 777 ft 150 kts 88°
2026-05-08 07:48 25.79946 -80.33139 574 ft 149 kts 88°
2026-05-08 07:49 25.79994 -80.31990 379 ft 149 kts 88°
2026-05-08 07:49 25.80048 -80.30847 182 ft 148 kts 87°
2026-05-08 07:49 25.80091 -80.29708 36 ft 146 kts 88°
2026-05-08 07:49 25.80130 -80.28717 22 ft 99 kts 87°
2026-05-08 07:50 25.80151 -80.28202 16 ft 39 kts 87°
2026-05-08 07:50 25.80134 -80.28000 16 ft 23 kts 119°
2026-05-08 07:50 25.80075 -80.27932 15 ft 6 kts 152°
2026-05-08 07:50 25.80027 -80.27904 15 ft 9 kts 152°
2026-05-08 07:51 25.79968 -80.27890 15 ft 9 kts 179°
2026-05-08 07:51 25.79902 -80.27888 16 ft 10 kts 177°
2026-05-08 07:51 25.79833 -80.27884 18 ft 10 kts 177°
2026-05-08 07:51 25.79778 -80.27880 19 ft 4 kts 176°
2026-05-08 07:52 25.79773 -80.27880 19 ft 0 kts 176°
2026-05-08 07:54 25.79709 -80.38842 1566 ft 157 kts 88°